VJC1201 VVTS-WSSS

Flight info

Callsign VJC1201
Flight time 1h 31m
Altitude 32000
Route NIXIV L643 CN L642 ESPOB Q801 ESBUM Q802 ELALO
Aircraft A21N/M-V/N

Departure

Time 2026-05-07 11:28
Airport Tan Son Nhat International Airport (VVTS)

Arrival

Time 2026-05-07 12:59
Airport Singapore Changi Airport (WSSS)
Time Latitude Longitude Altitude Speed Heading
2026-05-07 11:08 10.81602 106.66140 31 ft 0 kts 95°
2026-05-07 11:17 10.81603 106.66126 30 ft 2 kts 95°
2026-05-07 11:17 10.81604 106.66111 29 ft 2 kts 96°
2026-05-07 11:18 10.81605 106.66106 29 ft 2 kts 96°
2026-05-07 11:18 10.81606 106.66099 28 ft 2 kts 96°
2026-05-07 11:18 10.81607 106.66085 28 ft 0 kts 95°
2026-05-07 11:18 10.81607 106.66074 27 ft 2 kts 78°
2026-05-07 11:19 10.81602 106.66060 26 ft 2 kts 54°
2026-05-07 11:19 10.81591 106.66048 26 ft 2 kts 30°
2026-05-07 11:19 10.81578 106.66044 26 ft 0 kts
2026-05-07 11:19 10.81572 106.66043 26 ft 1 kts
2026-05-07 11:20 10.81570 106.66043 26 ft 0 kts
2026-05-07 11:21 10.81571 106.66043 26 ft 0 kts
2026-05-07 11:21 10.81580 106.66044 26 ft 2 kts
2026-05-07 11:22 10.81603 106.66047 26 ft 4 kts
2026-05-07 11:22 10.81635 106.66050 27 ft 4 kts
2026-05-07 11:22 10.81670 106.66053 28 ft 5 kts
2026-05-07 11:22 10.81711 106.66057 29 ft 6 kts
2026-05-07 11:23 10.81765 106.66061 30 ft 8 kts
2026-05-07 11:23 10.81821 106.66067 31 ft 6 kts
2026-05-07 11:23 10.81869 106.66097 31 ft 10 kts 59°
2026-05-07 11:23 10.81902 106.66179 28 ft 15 kts 69°
2026-05-07 11:24 10.81946 106.66294 26 ft 18 kts 69°
2026-05-07 11:24 10.81992 106.66419 27 ft 19 kts 69°
2026-05-07 11:24 10.82040 106.66551 25 ft 21 kts 71°
2026-05-07 11:24 10.82097 106.66695 28 ft 21 kts 68°
2026-05-07 11:25 10.82147 106.66829 32 ft 19 kts 70°
2026-05-07 11:25 10.82197 106.66959 33 ft 13 kts 68°
2026-05-07 11:25 10.82230 106.67014 33 ft 9 kts 22°
2026-05-07 11:25 10.82299 106.66983 32 ft 12 kts 327°
2026-05-07 11:26 10.82363 106.66949 32 ft 3 kts 301°
2026-05-07 11:26 10.82356 106.66911 33 ft 5 kts 245°
2026-05-07 11:26 10.82352 106.66901 33 ft 0 kts 249°
2026-05-07 11:27 10.82352 106.66899 33 ft 2 kts 249°
2026-05-07 11:27 10.82265 106.66690 35 ft 66 kts 250°
2026-05-07 11:27 10.82027 106.66043 32 ft 127 kts 250°
2026-05-07 11:28 10.81648 106.65018 35 ft 177 kts 249°
2026-05-07 11:28 10.81255 106.63753 257 ft 198 kts 249°
2026-05-07 11:28 10.80749 106.62431 849 ft 202 kts 246°
2026-05-07 11:28 10.80218 106.61128 1497 ft 204 kts 245°
2026-05-07 11:29 10.79664 106.59750 1795 ft 216 kts 245°
2026-05-07 11:29 10.79082 106.58282 2025 ft 232 kts 246°
2026-05-07 11:29 10.78523 106.56851 2254 ft 247 kts 247°
2026-05-07 11:29 10.78294 106.56266 2353 ft 252 kts 245°
2026-05-07 11:30 10.77307 106.54745 2612 ft 264 kts 218°
2026-05-07 11:30 10.75648 106.53909 3020 ft 269 kts 189°
2026-05-07 11:30 10.73778 106.53947 3579 ft 269 kts 169°
2026-05-07 11:30 10.72055 106.54247 4099 ft 272 kts 169°
2026-05-07 11:31 10.70169 106.54562 4659 ft 277 kts 169°
2026-05-07 11:31 10.68254 106.54871 5233 ft 281 kts 169°
2026-05-07 11:31 10.66307 106.55183 5835 ft 285 kts 169°
2026-05-07 11:31 10.64328 106.55496 6430 ft 289 kts 169°
2026-05-07 11:32 10.60291 106.56129 7674 ft 294 kts 168°
2026-05-07 11:32 10.58271 106.56446 8269 ft 296 kts 168°
2026-05-07 11:32 10.56215 106.56770 8735 ft 298 kts 168°
2026-05-07 11:33 10.54135 106.57096 8989 ft 300 kts 167°
2026-05-07 11:33 10.52074 106.57419 8979 ft 299 kts 167°
2026-05-07 11:33 10.50002 106.57744 9027 ft 298 kts 167°
2026-05-07 11:33 10.47949 106.58067 9011 ft 300 kts 167°
2026-05-07 11:34 10.45856 106.58395 9455 ft 305 kts 167°
2026-05-07 11:34 10.43744 106.58727 10128 ft 304 kts 167°
2026-05-07 11:34 10.41631 106.59059 10440 ft 315 kts 167°
2026-05-07 11:34 10.39403 106.59410 10679 ft 329 kts 167°
2026-05-07 11:35 10.37046 106.59780 10914 ft 342 kts 168°
2026-05-07 11:35 10.34668 106.60151 11134 ft 354 kts 168°
2026-05-07 11:35 10.32172 106.60539 11493 ft 361 kts 168°
2026-05-07 11:35 10.29652 106.60928 11993 ft 363 kts 168°
2026-05-07 11:36 10.27139 106.61317 12468 ft 365 kts 168°
2026-05-07 11:36 10.24633 106.61704 12933 ft 367 kts 168°
2026-05-07 11:36 10.22101 106.62122 13366 ft 369 kts 166°
2026-05-07 11:36 10.19591 106.62694 13802 ft 370 kts 162°
2026-05-07 11:37 10.17080 106.63388 14234 ft 372 kts 162°
2026-05-07 11:37 10.14498 106.63951 14640 ft 376 kts 168°
2026-05-07 11:37 10.11898 106.64218 15041 ft 380 kts 174°
2026-05-07 11:37 10.09225 106.64246 15440 ft 383 kts 178°
2026-05-07 11:38 10.06534 106.64216 15827 ft 386 kts 178°
2026-05-07 11:38 10.03840 106.64175 16216 ft 387 kts 178°
2026-05-07 11:38 10.01124 106.64134 16615 ft 389 kts 178°
2026-05-07 11:38 9.98486 106.64098 16985 ft 390 kts 178°
2026-05-07 11:39 9.95741 106.64063 17345 ft 392 kts 178°
2026-05-07 11:39 9.92994 106.64029 17697 ft 394 kts 178°
2026-05-07 11:39 9.90244 106.63995 18040 ft 395 kts 178°
2026-05-07 11:39 9.87486 106.63963 18365 ft 397 kts 178°
2026-05-07 11:40 9.84701 106.63930 18681 ft 399 kts 178°
2026-05-07 11:40 9.81892 106.63898 18992 ft 401 kts 178°
2026-05-07 11:40 9.79086 106.63866 19293 ft 403 kts 179°
2026-05-07 11:40 9.76263 106.63834 19593 ft 405 kts 179°
2026-05-07 11:41 9.73420 106.63801 19893 ft 407 kts 179°
2026-05-07 11:41 9.70565 106.63767 20193 ft 408 kts 179°
2026-05-07 11:41 9.67721 106.63733 20485 ft 409 kts 179°
2026-05-07 11:41 9.64863 106.63700 20768 ft 411 kts 179°
2026-05-07 11:42 9.61982 106.63667 21041 ft 412 kts 179°
2026-05-07 11:42 9.59056 106.63634 21305 ft 414 kts 179°
2026-05-07 11:42 9.56187 106.63601 21559 ft 416 kts 179°
2026-05-07 11:42 9.53265 106.63567 21812 ft 417 kts 179°
2026-05-07 11:43 9.50342 106.63534 22061 ft 419 kts 179°
2026-05-07 11:43 9.47422 106.63500 22312 ft 420 kts 179°
2026-05-07 11:43 9.44487 106.63466 22559 ft 422 kts 179°
2026-05-07 11:43 9.41537 106.63432 22810 ft 423 kts 179°
2026-05-07 11:44 9.38576 106.63397 23052 ft 425 kts 179°
2026-05-07 11:44 9.35581 106.63364 23301 ft 426 kts 179°
2026-05-07 11:44 9.32600 106.63329 23547 ft 427 kts 179°
2026-05-07 11:44 9.29613 106.63296 23786 ft 428 kts 179°
2026-05-07 11:45 9.26658 106.63262 24019 ft 430 kts 179°
2026-05-07 11:45 9.23633 106.63228 24247 ft 431 kts 179°
2026-05-07 11:45 9.20630 106.63193 24466 ft 432 kts 179°
2026-05-07 11:45 9.17600 106.63159 24687 ft 434 kts 179°
2026-05-07 11:46 9.14574 106.63126 24897 ft 435 kts 179°
2026-05-07 11:46 9.11500 106.63091 25105 ft 437 kts 179°
2026-05-07 11:46 9.08478 106.63057 25314 ft 438 kts 179°
2026-05-07 11:46 9.05399 106.63022 25519 ft 439 kts 179°
2026-05-07 11:47 9.02315 106.62987 25721 ft 441 kts 179°
2026-05-07 11:47 8.99270 106.62953 25922 ft 442 kts 179°
2026-05-07 11:47 8.96164 106.62918 26132 ft 443 kts 179°
2026-05-07 11:47 8.93069 106.62882 26335 ft 444 kts 179°
2026-05-07 11:48 8.89958 106.62847 26529 ft 445 kts 179°
2026-05-07 11:48 8.86883 106.62813 26707 ft 446 kts 179°
2026-05-07 11:48 8.83756 106.62777 26882 ft 447 kts 179°
2026-05-07 11:48 8.80631 106.62742 27064 ft 449 kts 179°
2026-05-07 11:49 8.77481 106.62696 27222 ft 450 kts 181°
2026-05-07 11:49 8.74354 106.62277 27356 ft 454 kts 191°
2026-05-07 11:49 8.71308 106.61276 27528 ft 457 kts 202°
2026-05-07 11:49 8.68480 106.59768 27708 ft 459 kts 209°
2026-05-07 11:50 8.65766 106.58098 27902 ft 460 kts 210°
2026-05-07 11:50 8.63045 106.56390 28049 ft 462 kts 211°
2026-05-07 11:50 8.60294 106.54660 28196 ft 464 kts 211°
2026-05-07 11:50 8.57546 106.52938 28365 ft 465 kts 210°
2026-05-07 11:51 8.54786 106.51214 28536 ft 466 kts 210°
2026-05-07 11:51 8.52023 106.49493 28712 ft 467 kts 210°
2026-05-07 11:51 8.49255 106.47772 28878 ft 468 kts 210°
2026-05-07 11:51 8.46448 106.46027 29127 ft 467 kts 210°
2026-05-07 11:52 8.43689 106.44315 29381 ft 466 kts 210°
2026-05-07 11:52 8.40948 106.42615 29649 ft 465 kts 210°
2026-05-07 11:52 8.38180 106.40897 29917 ft 464 kts 210°
2026-05-07 11:52 8.35416 106.39183 30161 ft 464 kts 211°
2026-05-07 11:53 8.32682 106.37488 30352 ft 464 kts 210°
2026-05-07 11:53 8.29919 106.35773 30520 ft 466 kts 210°
2026-05-07 11:53 8.27133 106.34044 30699 ft 467 kts 210°
2026-05-07 11:53 8.24361 106.32327 30904 ft 467 kts 210°
2026-05-07 11:54 8.21576 106.30601 31084 ft 468 kts 210°
2026-05-07 11:54 8.18808 106.28886 31253 ft 469 kts 210°
2026-05-07 11:54 8.15997 106.27144 31445 ft 470 kts 210°
2026-05-07 11:54 8.13208 106.25417 31632 ft 470 kts 210°
2026-05-07 11:55 8.10426 106.23695 31781 ft 471 kts 210°
2026-05-07 11:55 8.04862 106.20250 31788 ft 470 kts 210°
2026-05-07 11:56 7.99259 106.16782 31790 ft 470 kts 210°
2026-05-07 11:56 7.93696 106.13342 31793 ft 469 kts 210°
2026-05-07 11:57 7.88100 106.09881 31792 ft 470 kts 210°
2026-05-07 11:57 7.82507 106.06425 31791 ft 471 kts 210°
2026-05-07 11:58 7.76934 106.02978 31796 ft 471 kts 210°
2026-05-07 11:58 7.71323 105.99509 31794 ft 471 kts 210°
2026-05-07 11:59 7.65750 105.96068 31795 ft 471 kts 210°
2026-05-07 11:59 7.60167 105.92622 31795 ft 470 kts 210°
2026-05-07 12:00 7.54560 105.89162 31817 ft 470 kts 210°
2026-05-07 12:00 7.48990 105.85724 31817 ft 471 kts 210°
2026-05-07 12:01 7.43379 105.82262 31810 ft 471 kts 210°
2026-05-07 12:01 7.37752 105.78790 31808 ft 472 kts 210°
2026-05-07 12:02 7.32139 105.75332 31813 ft 473 kts 210°
2026-05-07 12:02 7.26532 105.71875 31813 ft 472 kts 210°
2026-05-07 12:03 7.20911 105.68411 31812 ft 471 kts 210°
2026-05-07 12:03 7.15320 105.64964 31812 ft 471 kts 210°
2026-05-07 12:04 7.09717 105.61513 31809 ft 471 kts 210°
2026-05-07 12:04 7.04148 105.58083 31810 ft 471 kts 210°
2026-05-07 12:05 6.98442 105.54739 31809 ft 470 kts 205°
2026-05-07 12:05 6.92624 105.51765 31816 ft 470 kts 205°
2026-05-07 12:06 6.86763 105.48791 31822 ft 470 kts 205°
2026-05-07 12:06 6.80882 105.45802 31804 ft 470 kts 205°
2026-05-07 12:07 6.75047 105.42836 31814 ft 471 kts 205°
2026-05-07 12:07 6.69163 105.39843 31814 ft 471 kts 205°
2026-05-07 12:08 6.63332 105.36878 31812 ft 472 kts 205°
2026-05-07 12:08 6.57445 105.33884 31803 ft 472 kts 205°
2026-05-07 12:09 6.51550 105.30890 31807 ft 472 kts 205°
2026-05-07 12:09 6.45660 105.27898 31810 ft 473 kts 205°
2026-05-07 12:10 6.39802 105.24923 31811 ft 473 kts 205°
2026-05-07 12:10 6.33925 105.21940 31814 ft 473 kts 205°
2026-05-07 12:11 6.28017 105.18939 31818 ft 472 kts 205°
2026-05-07 12:11 6.22164 105.15968 31820 ft 472 kts 205°
2026-05-07 12:12 6.16284 105.12985 31815 ft 472 kts 205°
2026-05-07 12:12 6.10395 105.09998 31816 ft 473 kts 205°
2026-05-07 12:13 6.04515 105.07015 31811 ft 473 kts 205°
2026-05-07 12:13 5.98645 105.04039 31801 ft 472 kts 205°
2026-05-07 12:14 5.92744 105.01048 31796 ft 471 kts 205°
2026-05-07 12:14 5.86885 104.98077 31791 ft 471 kts 205°
2026-05-07 12:15 5.81034 104.95113 31793 ft 472 kts 205°
2026-05-07 12:15 5.75136 104.92124 31790 ft 473 kts 205°
2026-05-07 12:16 5.69268 104.89154 31794 ft 472 kts 205°
2026-05-07 12:16 5.63381 104.86176 31793 ft 472 kts 205°
2026-05-07 12:17 5.57458 104.83176 31795 ft 474 kts 205°
2026-05-07 12:17 5.51547 104.80183 31793 ft 474 kts 205°
2026-05-07 12:18 5.45656 104.77203 31790 ft 474 kts 205°
2026-05-07 12:18 5.39763 104.74223 31793 ft 474 kts 204°
2026-05-07 12:19 5.33849 104.71232 31790 ft 473 kts 205°
2026-05-07 12:19 5.27966 104.68256 31790 ft 474 kts 205°
2026-05-07 12:20 5.22065 104.65273 31790 ft 473 kts 205°
2026-05-07 12:20 5.16196 104.62305 31795 ft 474 kts 205°
2026-05-07 12:21 5.10281 104.59316 31793 ft 474 kts 205°
2026-05-07 12:21 5.04384 104.56335 31793 ft 474 kts 204°
2026-05-07 12:22 4.98460 104.53342 31792 ft 474 kts 205°
2026-05-07 12:22 4.92458 104.50594 31790 ft 472 kts 197°
2026-05-07 12:23 4.86143 104.48962 31792 ft 467 kts 186°
2026-05-07 12:23 4.79659 104.48553 31792 ft 464 kts 175°
2026-05-07 12:24 4.73239 104.49187 31795 ft 462 kts 170°
2026-05-07 12:24 4.66819 104.50023 31798 ft 462 kts 170°
2026-05-07 12:25 4.60442 104.50842 31802 ft 463 kts 170°
2026-05-07 12:25 4.54031 104.51659 31801 ft 462 kts 171°
2026-05-07 12:26 4.47628 104.52466 31803 ft 462 kts 171°
2026-05-07 12:26 4.41257 104.53268 31803 ft 461 kts 171°
2026-05-07 12:27 4.34855 104.54078 31805 ft 461 kts 171°
2026-05-07 12:27 4.28473 104.54886 31808 ft 461 kts 170°
2026-05-07 12:28 4.22079 104.55692 31809 ft 462 kts 171°
2026-05-07 12:28 4.15662 104.56383 31801 ft 462 kts 172°
2026-05-07 12:29 4.09270 104.56986 31794 ft 461 kts 172°
2026-05-07 12:29 4.02862 104.57600 31792 ft 461 kts 172°
2026-05-07 12:30 3.96460 104.58225 31792 ft 461 kts 172°
2026-05-07 12:30 3.90024 104.58857 31792 ft 461 kts 172°
2026-05-07 12:31 3.83624 104.59484 31792 ft 462 kts 172°
2026-05-07 12:31 3.77241 104.60109 31792 ft 462 kts 172°
2026-05-07 12:32 3.70801 104.60738 31792 ft 462 kts 172°
2026-05-07 12:32 3.64370 104.61368 31792 ft 461 kts 172°
2026-05-07 12:33 3.54808 104.62306 31792 ft 461 kts 172°
2026-05-07 12:33 3.48371 104.62939 31791 ft 461 kts 172°
2026-05-07 12:34 3.41968 104.63567 31791 ft 461 kts 172°
2026-05-07 12:34 3.35583 104.64195 31791 ft 461 kts 172°
2026-05-07 12:35 3.29166 104.64822 31791 ft 461 kts 172°
2026-05-07 12:35 3.22770 104.65452 31792 ft 461 kts 172°
2026-05-07 12:36 3.16348 104.66085 31627 ft 461 kts 172°
2026-05-07 12:36 3.13163 104.66396 31373 ft 459 kts 172°
2026-05-07 12:36 3.09944 104.66445 31106 ft 461 kts 182°
2026-05-07 12:37 3.06788 104.65951 30855 ft 462 kts 191°
2026-05-07 12:37 3.03728 104.64934 30556 ft 464 kts 201°
2026-05-07 12:37 3.00858 104.63422 30028 ft 469 kts 210°
2026-05-07 12:37 2.98262 104.61433 29319 ft 473 kts 220°
2026-05-07 12:38 2.95935 104.59077 28534 ft 475 kts 225°
2026-05-07 12:38 2.93705 104.56673 27961 ft 473 kts 226°
2026-05-07 12:38 2.91490 104.54263 27433 ft 469 kts 226°
2026-05-07 12:38 2.89286 104.51874 26927 ft 465 kts 225°
2026-05-07 12:39 2.87080 104.49494 26414 ft 461 kts 225°
2026-05-07 12:39 2.84911 104.47164 25904 ft 457 kts 225°
2026-05-07 12:39 2.82635 104.44724 25377 ft 453 kts 225°
2026-05-07 12:39 2.80416 104.42348 24870 ft 449 kts 225°
2026-05-07 12:40 2.78098 104.39868 24315 ft 446 kts 225°
2026-05-07 12:40 2.75844 104.37460 23780 ft 443 kts 225°
2026-05-07 12:40 2.73576 104.35036 23240 ft 440 kts 225°
2026-05-07 12:40 2.71489 104.32804 22746 ft 437 kts 225°
2026-05-07 12:41 2.69318 104.30486 22231 ft 433 kts 225°
2026-05-07 12:41 2.67234 104.28262 21736 ft 431 kts 225°
2026-05-07 12:41 2.65184 104.26073 21222 ft 429 kts 225°
2026-05-07 12:41 2.63150 104.23901 20708 ft 427 kts 225°
2026-05-07 12:42 2.61122 104.21735 20175 ft 426 kts 225°
2026-05-07 12:42 2.59111 104.19585 19830 ft 418 kts 225°
2026-05-07 12:42 2.57143 104.17477 19572 ft 408 kts 225°
2026-05-07 12:42 2.55229 104.15432 19397 ft 396 kts 225°
2026-05-07 12:43 2.53357 104.13432 19160 ft 387 kts 225°
2026-05-07 12:43 2.51486 104.11558 18906 ft 377 kts 216°
2026-05-07 12:43 2.49198 104.10416 18629 ft 361 kts 189°
2026-05-07 12:43 2.46702 104.10243 18312 ft 350 kts 175°
2026-05-07 12:44 2.44284 104.10324 17857 ft 349 kts 174°
2026-05-07 12:44 2.41819 104.10410 17398 ft 349 kts 175°
2026-05-07 12:44 2.39389 104.10469 16968 ft 348 kts 176°
2026-05-07 12:44 2.36955 104.10506 16648 ft 343 kts 176°
2026-05-07 12:45 2.34591 104.10525 16292 ft 340 kts 177°
2026-05-07 12:45 2.32218 104.10524 15889 ft 339 kts 177°
2026-05-07 12:45 2.29834 104.10517 15428 ft 338 kts 177°
2026-05-07 12:45 2.27490 104.10519 15024 ft 337 kts 177°
2026-05-07 12:46 2.25124 104.10520 14624 ft 335 kts 177°
2026-05-07 12:46 2.22817 104.10518 14257 ft 332 kts 177°
2026-05-07 12:46 2.20497 104.10519 13863 ft 330 kts 178°
2026-05-07 12:46 2.18190 104.10520 13476 ft 328 kts 177°
2026-05-07 12:47 2.15908 104.10519 13160 ft 323 kts 177°
2026-05-07 12:47 2.13649 104.10519 12794 ft 321 kts 178°
2026-05-07 12:47 2.11420 104.10520 12391 ft 321 kts 178°
2026-05-07 12:47 2.09164 104.10519 11988 ft 319 kts 178°
2026-05-07 12:48 2.06950 104.10519 11603 ft 317 kts 178°
2026-05-07 12:48 2.04740 104.10519 11220 ft 315 kts 178°
2026-05-07 12:48 2.02545 104.10517 10953 ft 308 kts 178°
2026-05-07 12:48 2.00435 104.10513 10910 ft 293 kts 178°
2026-05-07 12:49 1.98419 104.10509 10837 ft 280 kts 178°
2026-05-07 12:49 1.96465 104.10513 10502 ft 279 kts 178°
2026-05-07 12:49 1.94525 104.10521 10167 ft 277 kts 178°
2026-05-07 12:49 1.92580 104.10531 9837 ft 276 kts 178°
2026-05-07 12:50 1.90672 104.10539 9509 ft 275 kts 178°
2026-05-07 12:50 1.88755 104.10550 9201 ft 273 kts 179°
2026-05-07 12:50 1.86852 104.10558 8875 ft 271 kts 179°
2026-05-07 12:50 1.84943 104.10565 8543 ft 269 kts 179°
2026-05-07 12:51 1.83069 104.10574 8221 ft 273 kts 179°
2026-05-07 12:51 1.81136 104.10583 7859 ft 282 kts 179°
2026-05-07 12:51 1.79154 104.10593 7484 ft 282 kts 179°
2026-05-07 12:51 1.77180 104.10596 7116 ft 281 kts 179°
2026-05-07 12:52 1.75224 104.10601 6786 ft 278 kts 179°
2026-05-07 12:52 1.73293 104.10614 6463 ft 276 kts 179°
2026-05-07 12:52 1.71375 104.10627 6137 ft 274 kts 179°
2026-05-07 12:52 1.69473 104.10638 5896 ft 267 kts 178°
2026-05-07 12:53 1.67610 104.10609 5604 ft 264 kts 181°
2026-05-07 12:53 1.65780 104.10482 5330 ft 260 kts 188°
2026-05-07 12:53 1.64037 104.10049 5042 ft 258 kts 198°
2026-05-07 12:53 1.62340 104.09388 4654 ft 259 kts 202°
2026-05-07 12:54 1.60688 104.08671 4299 ft 259 kts 203°
2026-05-07 12:54 1.59027 104.07943 3996 ft 256 kts 202°
2026-05-07 12:54 1.57405 104.07244 3718 ft 253 kts 202°
2026-05-07 12:54 1.55771 104.06548 3504 ft 246 kts 202°
2026-05-07 12:55 1.54225 104.05894 3343 ft 239 kts 201°
2026-05-07 12:55 1.52716 104.05257 3099 ft 224 kts 201°
2026-05-07 12:55 1.51333 104.04671 2834 ft 204 kts 201°
2026-05-07 12:55 1.50063 104.04134 2548 ft 192 kts 201°
2026-05-07 12:56 1.48855 104.03625 2284 ft 182 kts 201°
2026-05-07 12:56 1.47721 104.03149 2069 ft 169 kts 201°
2026-05-07 12:56 1.46675 104.02707 1829 ft 155 kts 201°
2026-05-07 12:56 1.45710 104.02300 1631 ft 149 kts 200°
2026-05-07 12:57 1.44746 104.01897 1463 ft 148 kts 200°
2026-05-07 12:57 1.43781 104.01493 1286 ft 148 kts 200°
2026-05-07 12:57 1.42832 104.01093 1108 ft 147 kts 201°
2026-05-07 12:57 1.41888 104.00694 927 ft 147 kts 201°
2026-05-07 12:58 1.40929 104.00292 776 ft 146 kts 201°
2026-05-07 12:58 1.39991 103.99895 564 ft 146 kts 202°
2026-05-07 12:58 1.39061 103.99496 321 ft 144 kts 202°
2026-05-07 12:58 1.38126 103.99101 170 ft 145 kts 202°
2026-05-07 12:59 1.37200 103.98713 36 ft 140 kts 203°
2026-05-07 12:59 1.36407 103.98372 29 ft 100 kts 203°
2026-05-07 12:59 1.35919 103.98175 29 ft 50 kts 202°
2026-05-07 12:59 1.35689 103.98118 29 ft 29 kts 188°
2026-05-07 13:00 1.35524 103.98126 29 ft 17 kts 173°
2026-05-07 13:00 1.35401 103.98136 29 ft 17 kts 181°
2026-05-07 13:00 1.35286 103.98106 29 ft 16 kts 203°
2026-05-07 13:00 1.35179 103.98061 29 ft 16 kts 203°
2026-05-07 13:01 1.35078 103.98019 29 ft 11 kts 202°
2026-05-07 13:01 1.35065 103.98013 29 ft 0 kts 204°
2026-05-07 13:01 1.35055 103.98009 29 ft 2 kts 204°
2026-05-07 13:01 1.35033 103.98000 29 ft 4 kts 204°
2026-05-07 13:02 1.35001 103.97986 29 ft 6 kts 203°
2026-05-07 13:02 1.34951 103.97965 29 ft 9 kts 202°
2026-05-07 13:02 1.34889 103.97939 29 ft 7 kts 202°
2026-05-07 13:02 1.34835 103.97939 29 ft 9 kts 132°
2026-05-07 13:03 1.34801 103.98012 29 ft 12 kts 114°
2026-05-07 13:03 1.34763 103.98103 29 ft 15 kts 113°
2026-05-07 13:03 1.34724 103.98193 38 ft 9 kts 113°
2026-05-07 13:03 1.34716 103.98212 40 ft 8 kts 113°
2026-05-07 13:04 1.34711 103.98224 41 ft 8 kts 113°
2026-05-07 13:04 1.34694 103.98262 43 ft 7 kts 113°
2026-05-07 13:04 1.34675 103.98306 46 ft 6 kts 113°
2026-05-07 13:04 1.34658 103.98347 49 ft 6 kts 113°
2026-05-07 13:05 1.34633 103.98402 49 ft 10 kts 113°
2026-05-07 13:05 1.34597 103.98486 47 ft 16 kts 113°
2026-05-07 13:05 1.34544 103.98607 37 ft 17 kts 113°
2026-05-07 13:05 1.34497 103.98721 29 ft 18 kts 111°
2026-05-07 13:06 1.34450 103.98835 30 ft 8 kts 114°
2026-05-07 13:06 1.34474 103.98881 29 ft 8 kts 28°
2026-05-07 13:06 1.34540 103.98907 30 ft 11 kts 20°
2026-05-07 13:06 1.34616 103.98938 30 ft 12 kts 24°
2026-05-07 13:07 1.34702 103.98976 30 ft 14 kts 24°
2026-05-07 13:07 1.34757 103.99007 30 ft 7 kts 52°
2026-05-07 13:07 1.34763 103.99022 30 ft 0 kts 79°
2026-05-07 13:07 1.34764 103.99028 30 ft 1 kts 82°
2026-05-07 13:08 1.34764 103.99042 30 ft 3 kts 94°
2026-05-07 13:08 1.34751 103.99069 30 ft 5 kts 142°
2026-05-07 13:08 1.34701 103.99073 30 ft 8 kts 197°
2026-05-07 13:08 1.34634 103.99045 30 ft 11 kts 202°
2026-05-07 13:09 1.34548 103.99010 30 ft 14 kts 202°
2026-05-07 13:09 1.34449 103.98969 29 ft 16 kts 205°
2026-05-07 13:09 1.34335 103.98921 29 ft 18 kts 202°
2026-05-07 13:09 1.34209 103.98870 29 ft 20 kts 206°
2026-05-07 13:10 1.34088 103.98814 29 ft 11 kts 203°
2026-05-07 13:10 1.34040 103.98772 29 ft 10 kts 265°
2026-05-07 13:10 1.34069 103.98699 29 ft 12 kts 286°
2026-05-07 13:10 1.34059 103.98641 29 ft 3 kts 230°
2026-05-07 13:11 1.34049 103.98608 29 ft 6 kts 282°
2026-05-07 13:11 1.34054 103.98592 29 ft 0 kts 292°
2026-05-07 13:11 1.34056 103.98588 29 ft 0 kts 292°